SAVIL Weather Reports


time (UTC)temp
F
wind
direction
speed
knots
gust
knots
rain 1hr
in
rain 24hr
in
rain mn
in
humidity
%
barometer
mb
20260503194705 41 326 0.9 2.6 0.00 0.00 0.00 60 1006.9
20260503192705 42 0.0 0.9 0.00 0.00 0.00 55 1006.8
20260503190705 43 310 1.7 2.6 0.00 0.00 0.00 54 1006.7
20260503184705 45 292 2.6 3.5 0.00 0.00 0.00 52 1006.5
20260503182705 47 298 3.5 5.2 0.00 0.00 0.00 41 1006.4
20260503180705 50 279 4.3 7.0 0.00 0.00 0.00 35 1006.2
20260503174705 51 284 4.3 8.7 0.00 0.00 0.00 34 1006.1
20260503172710 51 284 5.2 9.6 0.00 0.00 0.00 31 1005.9
20260503170705 53 295 4.3 7.8 0.00 0.00 0.00 32 1005.8
20260503150704 54 303 6.1 11.3 0.00 0.00 0.00 30 1005.6
20260503130704 54 319 8.7 13.9 0.00 0.00 0.00 33 1005.4
20260503110704 51 360 3.5 7.0 0.00 0.00 0.00 50 1005.4
20260503080703 46 316 5.2 9.6 0.00 0.00 0.00 68 1005.4
20260503072703 45 313 8.7 12.2 0.00 0.00 0.00 67 1005.2
20260503070703 45 315 7.8 11.3 0.00 0.00 0.00 68 1005.0
20260503054703 47 329 5.2 8.7 0.00 0.00 0.00 61 1004.4
20260503052703 46 337 3.5 7.0 0.00 0.00 0.00 66 1004.4
20260503050703 46 326 3.5 5.2 0.00 0.00 0.00 67 1004.4
20260503044702 46 322 2.6 4.3 0.00 0.00 0.00 69 1004.3
20260503042702 46 317 2.6 4.3 0.00 0.00 0.00 64 1004.3
20260503040702 47 317 4.3 7.8 0.00 0.00 0.00 62 1004.3
20260503034702 48 324 6.1 10.4 0.00 0.00 0.00 57 1004.2
20260503032702 49 330 7.0 13.0 0.00 0.00 0.00 51 1004.0
20260503030702 49 342 5.2 8.7 0.00 0.00 0.00 56 1003.8
20260503024702 50 350 5.2 11.3 0.00 0.00 0.00 54 1003.6
20260503022702 50 339 7.0 13.9 0.00 0.00 0.00 60 1003.4
20260503020702 51 328 6.1 10.4 0.00 0.00 0.00 60 1003.4
20260503014702 52 295 5.2 9.6 0.00 0.00 0.00 59 1003.3
20260503012702 52 285 6.1 12.2 0.00 0.00 0.00 57 1003.1
20260503010702 53 263 6.1 9.6 0.00 0.00 0.00 55 1003.1
20260503004702 53 261 3.5 6.1 0.00 0.00 0.00 54 1002.9
20260503002702 53 253 4.3 7.8 0.00 0.00 0.00 53 1003.0
20260503000701 54 248 5.2 8.7 0.00 0.00 0.00 53 1003.0
20260502234701 54 251 4.3 7.8 0.00 0.00 0.00 52 1003.0
20260502232701 54 253 5.2 8.7 0.00 0.00 0.00 51 1003.0
20260502230701 54 264 4.3 7.8 0.00 0.00 0.00 51 1002.9
20260502224701 54 264 3.5 7.0 0.00 0.00 0.00 51 1003.0
20260502222701 55 262 5.2 7.8 0.00 0.00 0.00 49 1003.2
20260502220701 55 265 5.2 8.7 0.00 0.00 0.00 50 1003.3
20260502214701 55 273 5.2 8.7 0.00 0.00 0.00 48 1003.5
20260502212701 55 293 5.2 8.7 0.00 0.00 0.00 48 1003.5
20260502210701 56 286 5.2 8.7 0.00 0.00 0.00 47 1003.5
20260502204701 55 294 3.5 5.2 0.00 0.00 0.00 48 1003.5
20260502202701 56 303 3.5 5.2 0.00 0.00 0.00 47 1003.5
20260502200701 56 296 3.5 6.1 0.00 0.00 0.00 45 1003.5